This is the latest recevied weather packets stored in our database for station/object MB7UIK. If no packets are shown the sender has not sent any weather packets the latest 1 day(s).
| Time | Temp. | Humidity | Pressure | Rain* | Wind** | Luminosity | Snow |
|---|---|---|---|---|---|---|---|
| 1777997326 | 16.67° C | 41% | 1010.6 hPa | 0 mm | 1.79 m/s, 11° | - | - |
| 1777997266 | 16.67° C | 41% | 1010.6 hPa | 0 mm | 3.13 m/s, 12° | - | - |
| 1777997232 | 16.67° C | 41% | 1010.6 hPa | 0 mm | 3.13 m/s, 12° | - | - |
| 1777997206 | 16.67° C | 41% | 1010.7 hPa | 0 mm | 2.24 m/s, 45° | - | - |
| 1777997145 | 16.67° C | 41% | 1010.6 hPa | 0 mm | 1.34 m/s, 23° | - | - |
| 1777997085 | 16.67° C | 41% | 1010.6 hPa | 0 mm | 1.34 m/s, 12° | - | - |
| 1777997024 | 16.67° C | 41% | 1010.7 hPa | 0 mm | 3.58 m/s, 10° | - | - |
| 1777996964 | 16.67° C | 41% | 1010.7 hPa | 0 mm | 2.68 m/s, 336° | - | - |
| 1777996932 | 16.67° C | 41% | 1010.7 hPa | 0 mm | 2.68 m/s, 336° | - | - |
| 1777996904 | 16.67° C | 40% | 1010.7 hPa | 0 mm | 2.24 m/s, 350° | - | - |
| 1777996844 | 16.67° C | 40% | 1010.7 hPa | 0 mm | 3.58 m/s, 55° | - | - |
| 1777996786 | 16.67° C | 40% | 1010.7 hPa | 0 mm | 1.34 m/s, 28° | - | - |
| 1777996725 | 16.67° C | 40% | 1010.7 hPa | 0 mm | 2.68 m/s, 360° | - | - |
| 1777996665 | 16.67° C | 40% | 1010.7 hPa | 0 mm | 3.13 m/s, 72° | - | - |
| 1777996633 | 16.67° C | 40% | 1010.7 hPa | 0 mm | 3.13 m/s, 72° | - | - |
| 1777996605 | 16.67° C | 40% | 1010.7 hPa | 0 mm | 3.58 m/s, 38° | - | - |
| 1777996544 | 16.11° C | 40% | 1010.7 hPa | 0 mm | 0.89 m/s, 75° | - | - |
| 1777996484 | 16.11° C | 40% | 1010.7 hPa | 0 mm | 3.58 m/s, 35° | - | - |
| 1777996424 | 16.11° C | 40% | 1010.7 hPa | 0 mm | 2.24 m/s, 17° | - | - |
| 1777996364 | 16.11° C | 39% | 1010.7 hPa | 0 mm | 3.58 m/s, 32° | - | - |
| 1777996332 | 16.11° C | 39% | 1010.7 hPa | 0 mm | 3.58 m/s, 32° | - | - |
| 1777996304 | 16.11° C | 39% | 1010.8 hPa | 0 mm | 1.34 m/s, 42° | - | - |
| 1777996245 | 16.11° C | 39% | 1010.8 hPa | 0 mm | 2.24 m/s, 51° | - | - |
| 1777996185 | 16.11° C | 39% | 1010.7 hPa | 0 mm | 0.89 m/s, 22° | - | - |
| 1777996125 | 16.11° C | 39% | 1010.7 hPa | 0 mm | 2.24 m/s, 51° | - | - |
* Rain latest hour (hover to see other rain measurements)
** Current wind speed in m/s (hover to see current wind gust speed)